Location: Astronomy Club of Akron Observatory
(40.9700°N, 81.5606°W)
Time: 06:26:35
(UTC-05:00)

ISS - Visible Passes

Search period start: 24 November 2017 00:00
Search period end: 04 December 2017 00:00
Orbit: 402 x 407 km, 51.6° (Epoch: 24 November)

Date Brightness Start Highest point End Pass type
(mag) Time Alt. Az. Time Alt. Az. Time Alt. Az.
25 Nov -1.0 19:24:58 10° SW 19:25:37 15° SW 19:25:37 15° SW visible
26 Nov -2.8 18:33:01 10° SSW 18:35:47 31° SE 18:35:47 31° SE visible
27 Nov -1.8 17:41:38 10° S 17:43:47 16° SE 17:45:51 10° E visible
27 Nov -1.8 19:16:44 10° WSW 19:18:31 28° W 19:18:31 28° W visible
28 Nov -3.9 18:24:19 10° SW 18:27:35 79° SE 18:28:29 44° ENE visible
29 Nov -3.0 17:32:13 10° SSW 17:35:18 39° SE 17:38:23 10° ENE visible
29 Nov -1.8 19:08:55 10° W 19:11:02 25° NW 19:11:02 25° NW visible
30 Nov -3.1 18:16:09 10° WSW 18:19:19 45° NNW 18:20:52 25° NNE visible
01 Dec -3.8 17:23:37 10° SW 17:26:53 83° NW 17:30:10 10° NE visible
01 Dec -1.5 19:01:20 10° WNW 19:03:16 18° NNW 19:03:16 18° NNW visible
02 Dec -2.1 18:08:20 10° W 18:11:08 25° NNW 18:12:58 16° NNE visible
03 Dec -1.3 18:53:51 10° NW 18:55:17 14° NNW 18:55:17 14° NNW visible
